Overview Statistics Trail Chart Weather Telemetry Raw packets
 

This is the latest recevied weather packets stored in our database for station/object KE6YLF. If no packets are shown the sender has not sent any weather packets the latest 10 day(s).

<< 44 45 46 47 48 49 50 >>
Time Temp. Humidity Pressure Rain* Wind** Luminosity Snow
1788387539 38.33° C 32% 1076.1 hPa 0 mm - - -
1788387239 37.78° C 33% 1076 hPa 0 mm - - -
1788386934 37.78° C 32% 1076 hPa 0 mm - - -
1788386634 38.33° C 32% 1076.3 hPa 0 mm - - -
1788386330 38.33° C 32% 1076.3 hPa 0 mm - - -
1788386030 38.89° C 31% 1076.1 hPa 0 mm - - -
1788385726 37.78° C 32% 1076.4 hPa 0 mm - - -
1788385424 38.33° C 32% 1076.4 hPa 0 mm - - -
1788385119 38.89° C 31% 1076.6 hPa 0 mm - - -
1788384816 38.89° C 31% 1076.6 hPa 0 mm - - -
1788384514 38.33° C 32% 1076.6 hPa 0 mm - - -
1788384211 37.22° C 33% 1076.6 hPa 0 mm - - -
1788383907 37.78° C 34% 1076.7 hPa 0 mm - - -
1788383603 38.33° C 33% 1077 hPa 0 mm - - -
1788383298 37.78° C 34% 1077 hPa 0 mm - - -
1788382997 37.22° C 34% 1077.1 hPa 0 mm - - -
1788382695 37.78° C 34% 1077.2 hPa 0 mm - - -
1788382396 36.67° C 35% 1077.2 hPa 0 mm - - -
1788382091 37.22° C 34% 1077.2 hPa 0 mm - - -
1788381787 37.22° C 35% 1077.4 hPa 0 mm - - -
1788381482 37.78° C 35% 1077.4 hPa 0 mm - - -
1788381177 37.22° C 36% 1077.4 hPa 0 mm - - -
1788380877 36.67° C 37% 1077.5 hPa 0 mm - - -
1788380574 37.22° C 35% 1077.6 hPa 0 mm - - -
1788380270 37.22° C 36% 1077.6 hPa 0 mm - - -

* Rain latest hour (hover to see other rain measurements)
** Current wind speed in m/s (hover to see current wind gust speed)